| time (UTC) | temp F | wind direction | speed knots | gust knots | rain 1hr in | rain 24hr in | rain mn in | humidity % | barometer mb |
| 20260901005047 | 86 | 275 | 0.0 | 0.0 | 0.00 | 0.00 | 0.00 | 80 | 1013.4 |
| 20260901004546 | 86 | 275 | 0.0 | 0.0 | 0.00 | 0.00 | 0.00 | 81 | 1013.3 |
| 20260901004041 | 86 | 275 | 0.0 | 0.0 | 0.00 | 0.00 | 0.00 | 82 | 1013.2 |
| 20260901003536 | 87 | 275 | 0.0 | 0.0 | 0.00 | 0.00 | 0.00 | 81 | 1013.2 |
| 20260901003034 | 87 | 275 | 0.0 | 0.0 | 0.00 | 0.00 | 0.00 | 80 | 1013.3 |
| 20260901002534 | 88 | 275 | 0.0 | 0.0 | 0.00 | 0.00 | 0.00 | 78 | 1013.1 |
| 20260901002029 | 88 | 275 | 0.0 | 0.0 | 0.00 | 0.00 | 0.00 | 78 | 1013.1 |
| 20260901001524 | 88 | 275 | 0.0 | 0.0 | 0.00 | 0.00 | 0.00 | 76 | 1013.1 |
| 20260901001019 | 89 | 275 | 0.0 | 0.0 | 0.00 | 0.00 | 0.00 | 76 | 1013.4 |
| 20260901000514 | 89 | 275 | 0.0 | 0.0 | 0.00 | 0.00 | 0.00 | 75 | 1013.1 |
| 20260901000010 | 89 | 276 | 0.0 | 0.0 | 0.00 | 0.00 | 0.00 | 75 | 1013.3 |
| 20260831235503 | 89 | 276 | 0.0 | 0.9 | 0.00 | 0.00 | 0.00 | 74 | 1013.3 |
| 20260831234959 | 89 | 272 | 0.9 | 1.7 | 0.00 | 0.00 | 0.00 | 74 | 1013.3 |
| 20260831234453 | 90 | 259 | 1.7 | 2.6 | 0.00 | 0.00 | 0.00 | 71 | 1013.1 |
| 20260831233948 | 91 | 229 | 1.7 | 4.3 | 0.00 | 0.00 | 0.00 | 71 | 1012.9 |
| 20260831233443 | 91 | 234 | 2.6 | 2.6 | 0.00 | 0.00 | 0.00 | 71 | 1013.1 |
| 20260831232939 | 91 | 221 | 3.5 | 4.3 | 0.00 | 0.00 | 0.00 | 71 | 1013.0 |
| 20260831232435 | 92 | 215 | 2.6 | 4.3 | 0.00 | 0.00 | 0.00 | 71 | 1013.1 |
| 20260831231930 | 92 | 241 | 2.6 | 5.2 | 0.00 | 0.00 | 0.00 | 70 | 1013.2 |
| 20260831231426 | 93 | 282 | 2.6 | 2.6 | 0.00 | 0.00 | 0.00 | 69 | 1013.1 |
| 20260831230922 | 93 | 269 | 0.9 | 1.7 | 0.00 | 0.00 | 0.00 | 68 | 1013.1 |
| 20260831230417 | 93 | 235 | 2.6 | 4.3 | 0.00 | 0.00 | 0.00 | 67 | 1013.1 |
| 20260831225911 | 93 | 229 | 2.6 | 2.6 | 0.00 | 0.00 | 0.00 | 66 | 1012.9 |
| 20260831225407 | 93 | 277 | 0.9 | 4.3 | 0.00 | 0.00 | 0.00 | 66 | 1013.0 |
| 20260831224902 | 93 | 206 | 2.6 | 2.6 | 0.00 | 0.00 | 0.00 | 65 | 1013.1 |
| 20260831224401 | 94 | 283 | 1.7 | 2.6 | 0.00 | 0.00 | 0.00 | 64 | 1012.9 |
| 20260831223856 | 94 | 239 | 2.6 | 4.3 | 0.00 | 0.00 | 0.00 | 63 | 1012.9 |
| 20260831223352 | 94 | 231 | 2.6 | 4.3 | 0.00 | 0.00 | 0.00 | 63 | 1013.0 |
| 20260831222849 | 93 | 228 | 2.6 | 4.3 | 0.00 | 0.00 | 0.00 | 64 | 1013.0 |
| 20260831222344 | 94 | 233 | 1.7 | 2.6 | 0.00 | 0.00 | 0.00 | 64 | 1013.0 |
| 20260831221839 | 95 | 226 | 3.5 | 5.2 | 0.00 | 0.00 | 0.00 | 63 | 1013.1 |
| 20260831221335 | 94 | 235 | 1.7 | 4.3 | 0.00 | 0.00 | 0.00 | 63 | 1013.0 |
| 20260831220829 | 94 | 217 | 2.6 | 4.3 | 0.00 | 0.00 | 0.00 | 63 | 1013.0 |
| 20260831220325 | 93 | 189 | 2.6 | 4.3 | 0.00 | 0.00 | 0.00 | 64 | 1012.9 |
| 20260831215820 | 94 | 218 | 2.6 | 5.2 | 0.00 | 0.00 | 0.00 | 64 | 1013.0 |
| 20260831215316 | 93 | 279 | 2.6 | 5.2 | 0.00 | 0.00 | 0.00 | 65 | 1013.0 |
| 20260831214812 | 93 | 239 | 6.1 | 7.0 | 0.00 | 0.00 | 0.00 | 64 | 1012.8 |
| 20260831214310 | 94 | 254 | 0.9 | 6.1 | 0.00 | 0.00 | 0.00 | 65 | 1012.9 |
| 20260831213805 | 94 | 190 | 5.2 | 7.8 | 0.00 | 0.00 | 0.00 | 63 | 1012.8 |
| 20260831213301 | 94 | 264 | 0.9 | 5.2 | 0.00 | 0.00 | 0.00 | 66 | 1012.9 |
| 20260831212756 | 94 | 202 | 4.3 | 6.1 | 0.00 | 0.00 | 0.00 | 66 | 1013.2 |
| 20260831212253 | 95 | 234 | 2.6 | 5.2 | 0.00 | 0.00 | 0.00 | 64 | 1013.0 |
| 20260831211751 | 94 | 262 | 0.9 | 4.3 | 0.00 | 0.00 | 0.00 | 63 | 1012.9 |
| 20260831211246 | 95 | 260 | 2.6 | 4.3 | 0.00 | 0.00 | 0.00 | 60 | 1012.9 |
| 20260831210740 | 95 | 290 | 0.9 | 2.6 | 0.00 | 0.00 | 0.00 | 62 | 1012.9 |
| 20260831210236 | 94 | 279 | 0.9 | 4.3 | 0.00 | 0.00 | 0.00 | 63 | 1013.0 |
| 20260831205735 | 94 | 260 | 2.6 | 2.6 | 0.00 | 0.00 | 0.00 | 59 | 1013.1 |
| 20260831205233 | 95 | 171 | 4.3 | 5.2 | 0.00 | 0.00 | 0.00 | 60 | 1013.1 |
| 20260831204732 | 94 | 236 | 2.6 | 6.1 | 0.00 | 0.00 | 0.00 | 61 | 1013.1 |
| 20260831204231 | 93 | 263 | 2.6 | 5.2 | 0.00 | 0.00 | 0.00 | 63 | 1013.2 |
| 20260831203725 | 93 | 251 | 4.3 | 5.2 | 0.00 | 0.00 | 0.00 | 64 | 1013.3 |
| 20260831203226 | 93 | 207 | 4.3 | 6.1 | 0.00 | 0.00 | 0.00 | 66 | 1013.2 |
| 20260831202724 | 93 | 229 | 7.0 | 8.7 | 0.00 | 0.00 | 0.00 | 66 | 1013.1 |
| 20260831202219 | 93 | 230 | 5.2 | 7.0 | 0.00 | 0.00 | 0.00 | 67 | 1013.1 |
| 20260831201718 | 93 | 208 | 4.3 | 7.8 | 0.00 | 0.00 | 0.00 | 69 | 1013.1 |
| 20260831201213 | 94 | 207 | 5.2 | 7.0 | 0.00 | 0.00 | 0.00 | 67 | 1013.2 |
| 20260831200708 | 94 | 222 | 4.3 | 6.1 | 0.00 | 0.00 | 0.00 | 68 | 1013.1 |
| 20260831200208 | 95 | 239 | 3.5 | 4.3 | 0.00 | 0.00 | 0.00 | 63 | 1013.1 |
| 20260831195704 | 95 | 213 | 2.6 | 2.6 | 0.00 | 0.00 | 0.00 | 65 | 1013.3 |
| 20260831195200 | 93 | 281 | 0.9 | 4.3 | 0.00 | 0.00 | 0.00 | 66 | 1013.1 |
| 20260831194654 | 93 | 245 | 1.7 | 1.7 | 0.00 | 0.00 | 0.00 | 66 | 1013.1 |
| 20260831194149 | 93 | 225 | 0.9 | 2.6 | 0.00 | 0.00 | 0.00 | 66 | 1013.1 |
| 20260831193643 | 93 | 248 | 2.6 | 5.2 | 0.00 | 0.00 | 0.00 | 65 | 1013.2 |
| 20260831193139 | 92 | 238 | 1.7 | 4.3 | 0.00 | 0.00 | 0.00 | 66 | 1013.2 |
| 20260831192634 | 92 | 256 | 1.7 | 4.3 | 0.00 | 0.00 | 0.00 | 66 | 1013.2 |
| 20260831192130 | 92 | 211 | 3.5 | 7.0 | 0.00 | 0.00 | 0.00 | 65 | 1013.1 |
| 20260831191625 | 92 | 228 | 3.5 | 5.2 | 0.00 | 0.00 | 0.00 | 68 | 1013.1 |
| 20260831191121 | 92 | 169 | 2.6 | 5.2 | 0.00 | 0.00 | 0.00 | 68 | 1013.1 |
| 20260831190616 | 92 | 199 | 3.5 | 6.1 | 0.00 | 0.00 | 0.00 | 67 | 1013.0 |
| 20260831190115 | 93 | 190 | 4.3 | 7.0 | 0.00 | 0.00 | 0.00 | 65 | 1013.2 |
| 20260831185611 | 94 | 250 | 1.7 | 2.6 | 0.00 | 0.00 | 0.00 | 62 | 1013.2 |
| 20260831185106 | 92 | 222 | 3.5 | 6.1 | 0.00 | 0.00 | 0.00 | 66 | 1013.3 |
| 20260831184605 | 93 | 210 | 4.3 | 5.2 | 0.00 | 0.00 | 0.00 | 64 | 1013.2 |
| 20260831184101 | 92 | 238 | 5.2 | 6.1 | 0.00 | 0.00 | 0.00 | 67 | 1013.2 |
| 20260831183600 | 92 | 216 | 3.5 | 5.2 | 0.00 | 0.00 | 0.00 | 65 | 1013.3 |
| 20260831183054 | 92 | 287 | 1.7 | 5.2 | 0.00 | 0.00 | 0.00 | 65 | 1013.2 |
| 20260831182549 | 91 | 212 | 4.3 | 5.2 | 0.00 | 0.00 | 0.00 | 67 | 1013.3 |
| 20260831182044 | 92 | 260 | 4.3 | 7.0 | 0.00 | 0.00 | 0.00 | 68 | 1013.1 |
| 20260831181539 | 92 | 228 | 3.5 | 5.2 | 0.00 | 0.00 | 0.00 | 65 | 1013.1 |
| 20260831181038 | 91 | 279 | 0.9 | 4.3 | 0.00 | 0.00 | 0.00 | 65 | 1013.2 |
| 20260831180534 | 91 | 248 | 2.6 | 4.3 | 0.00 | 0.00 | 0.00 | 66 | 1013.1 |
| 20260831180028 | 91 | 215 | 2.6 | 4.3 | 0.00 | 0.00 | 0.00 | 68 | 1013.0 |
| 20260831175524 | 92 | 170 | 1.7 | 5.2 | 0.00 | 0.00 | 0.00 | 67 | 1012.9 |
| 20260831175021 | 91 | 226 | 1.7 | 1.7 | 0.00 | 0.00 | 0.00 | 66 | 1013.2 |
| 20260831174520 | 90 | 246 | 1.7 | 2.6 | 0.00 | 0.00 | 0.00 | 68 | 1013.1 |
| 20260831174015 | 90 | 279 | 0.9 | 5.2 | 0.00 | 0.00 | 0.00 | 68 | 1013.3 |
| 20260831173513 | 90 | 192 | 1.7 | 4.3 | 0.00 | 0.00 | 0.00 | 67 | 1013.0 |
| 20260831173010 | 92 | 220 | 0.9 | 4.3 | 0.00 | 0.00 | 0.00 | 64 | 1013.2 |
| 20260831172504 | 90 | 155 | 1.7 | 2.6 | 0.00 | 0.00 | 0.00 | 67 | 1013.1 |
| 20260831171959 | 89 | 162 | 2.6 | 5.2 | 0.00 | 0.00 | 0.00 | 70 | 1013.3 |
| 20260831171455 | 89 | 228 | 2.6 | 5.2 | 0.00 | 0.00 | 0.00 | 70 | 1013.2 |
| 20260831170952 | 89 | 278 | 0.9 | 2.6 | 0.00 | 0.00 | 0.00 | 70 | 1013.1 |
| 20260831170448 | 89 | 222 | 1.7 | 2.6 | 0.00 | 0.00 | 0.00 | 69 | 1013.2 |
| 20260831165945 | 88 | 230 | 2.6 | 2.6 | 0.00 | 0.00 | 0.00 | 70 | 1013.0 |
| 20260831165440 | 88 | 285 | 0.9 | 2.6 | 0.00 | 0.00 | 0.00 | 69 | 1013.1 |
| 20260831164937 | 89 | 175 | 2.6 | 4.3 | 0.00 | 0.00 | 0.00 | 68 | 1013.0 |
| 20260831164432 | 89 | 234 | 2.6 | 4.3 | 0.00 | 0.00 | 0.00 | 69 | 1012.9 |
| 20260831163927 | 87 | 172 | 2.6 | 6.1 | 0.00 | 0.00 | 0.00 | 70 | 1012.8 |
| 20260831163422 | 86 | 199 | 3.5 | 4.3 | 0.00 | 0.00 | 0.00 | 70 | 1012.8 |
| 20260831162921 | 86 | 230 | 1.7 | 4.3 | 0.00 | 0.00 | 0.00 | 71 | 1012.8 |
| 20260831162416 | 87 | 170 | 2.6 | 4.3 | 0.00 | 0.00 | 0.00 | 68 | 1012.7 |
| 20260831161914 | 86 | 255 | 2.6 | 7.0 | 0.00 | 0.00 | 0.00 | 71 | 1012.8 |
| 20260831161411 | 86 | 268 | 2.6 | 2.6 | 0.00 | 0.00 | 0.00 | 69 | 1012.8 |
| 20260831160906 | 85 | 246 | 2.6 | 4.3 | 0.00 | 0.00 | 0.00 | 71 | 1012.9 |
| 20260831160401 | 85 | 211 | 2.6 | 4.3 | 0.00 | 0.00 | 0.00 | 71 | 1012.8 |
| 20260831155856 | 86 | 208 | 2.6 | 4.3 | 0.00 | 0.00 | 0.00 | 70 | 1012.8 |
| 20260831155351 | 86 | 290 | 2.6 | 2.6 | 0.00 | 0.00 | 0.00 | 70 | 1012.6 |
| 20260831154846 | 84 | 264 | 0.0 | 0.9 | 0.00 | 0.00 | 0.00 | 72 | 1012.7 |
| 20260831154343 | 84 | 282 | 0.0 | 1.7 | 0.00 | 0.00 | 0.00 | 73 | 1012.9 |
| 20260831153841 | 85 | 253 | 0.9 | 1.7 | 0.00 | 0.00 | 0.00 | 71 | 1012.7 |
| 20260831153337 | 85 | 266 | 0.9 | 1.7 | 0.00 | 0.00 | 0.00 | 69 | 1012.5 |
| 20260831152833 | 86 | 268 | 2.6 | 5.2 | 0.00 | 0.00 | 0.00 | 69 | 1013.0 |
| 20260831152329 | 86 | 272 | 1.7 | 2.6 | 0.00 | 0.00 | 0.00 | 70 | 1012.9 |
| 20260831151824 | 86 | 251 | 2.6 | 6.1 | 0.00 | 0.00 | 0.00 | 68 | 1012.8 |
| 20260831151322 | 86 | 105 | 1.7 | 2.6 | 0.00 | 0.00 | 0.00 | 69 | 1012.9 |
| 20260831150818 | 85 | 297 | 2.6 | 4.3 | 0.00 | 0.00 | 0.00 | 69 | 1013.0 |
| 20260831150314 | 84 | 210 | 2.6 | 5.2 | 0.00 | 0.00 | 0.00 | 70 | 1012.9 |
| 20260831145812 | 83 | 285 | 2.6 | 5.2 | 0.00 | 0.00 | 0.00 | 71 | 1013.0 |
| 20260831145309 | 83 | 233 | 3.5 | 6.1 | 0.00 | 0.00 | 0.00 | 71 | 1012.9 |
| 20260831144804 | 82 | 233 | 5.2 | 7.0 | 0.00 | 0.00 | 0.00 | 72 | 1012.9 |
| 20260831144301 | 83 | 206 | 5.2 | 9.6 | 0.00 | 0.00 | 0.00 | 70 | 1013.0 |
| 20260831143800 | 83 | 221 | 3.5 | 7.0 | 0.00 | 0.00 | 0.00 | 70 | 1013.0 |
| 20260831143255 | 82 | 234 | 1.7 | 6.1 | 0.00 | 0.00 | 0.00 | 71 | 1012.8 |
| 20260831142750 | 82 | 230 | 4.3 | 6.1 | 0.00 | 0.00 | 0.00 | 71 | 1012.8 |
| 20260831142246 | 82 | 219 | 2.6 | 5.2 | 0.00 | 0.00 | 0.00 | 71 | 1012.6 |
| 20260831141745 | 82 | 251 | 2.6 | 6.1 | 0.00 | 0.00 | 0.00 | 72 | 1012.7 |
| 20260831141245 | 82 | 242 | 0.9 | 2.6 | 0.00 | 0.00 | 0.00 | 73 | 1012.6 |
| 20260831140740 | 81 | 201 | 4.3 | 5.2 | 0.00 | 0.00 | 0.00 | 73 | 1012.7 |
| 20260831140234 | 80 | 229 | 2.6 | 5.2 | 0.00 | 0.00 | 0.00 | 75 | 1012.5 |
| 20260831135732 | 80 | 192 | 2.6 | 4.3 | 0.00 | 0.00 | 0.00 | 74 | 1012.6 |
| 20260831135228 | 79 | 219 | 4.3 | 7.0 | 0.00 | 0.00 | 0.00 | 75 | 1012.5 |
| 20260831134723 | 79 | 210 | 1.7 | 5.2 | 0.00 | 0.00 | 0.00 | 75 | 1012.4 |
| 20260831134220 | 79 | 240 | 3.5 | 5.2 | 0.00 | 0.00 | 0.00 | 75 | 1012.5 |
| 20260831133718 | 79 | 212 | 2.6 | 7.0 | 0.00 | 0.00 | 0.00 | 76 | 1012.6 |
| 20260831133213 | 79 | 222 | 2.6 | 5.2 | 0.00 | 0.00 | 0.00 | 75 | 1012.5 |
| 20260831132709 | 78 | 233 | 1.7 | 7.0 | 0.00 | 0.00 | 0.00 | 76 | 1012.3 |
| 20260831132203 | 78 | 227 | 3.5 | 5.2 | 0.00 | 0.00 | 0.00 | 76 | 1012.4 |
| 20260831131702 | 78 | 251 | 2.6 | 4.3 | 0.00 | 0.00 | 0.00 | 76 | 1012.3 |
| 20260831131159 | 78 | 212 | 2.6 | 4.3 | 0.00 | 0.00 | 0.00 | 76 | 1012.2 |
| 20260831130654 | 77 | 178 | 3.5 | 6.1 | 0.00 | 0.00 | 0.00 | 77 | 1012.1 |
| 20260831130149 | 77 | 259 | 2.6 | 4.3 | 0.00 | 0.00 | 0.00 | 77 | 1012.0 |
| 20260831125648 | 76 | 231 | 3.5 | 5.2 | 0.00 | 0.00 | 0.00 | 78 | 1012.0 |
| 20260831125143 | 77 | 225 | 4.3 | 6.1 | 0.00 | 0.00 | 0.00 | 78 | 1011.7 |
| 20260831124639 | 77 | 218 | 4.3 | 7.8 | 0.00 | 0.00 | 0.00 | 78 | 1011.6 |
| 20260831124135 | 76 | 222 | 6.1 | 7.0 | 0.00 | 0.00 | 0.00 | 77 | 1011.8 |
| 20260831123630 | 76 | 219 | 3.5 | 5.2 | 0.00 | 0.00 | 0.00 | 78 | 1011.5 |
| 20260831123129 | 76 | 217 | 7.8 | 11.3 | 0.00 | 0.00 | 0.00 | 77 | 1011.5 |
| 20260831122628 | 76 | 180 | 2.6 | 6.1 | 0.00 | 0.00 | 0.00 | 79 | 1011.5 |
| 20260831122125 | 76 | 203 | 4.3 | 7.0 | 0.00 | 0.00 | 0.00 | 78 | 1011.4 |
| 20260831121624 | 76 | 218 | 6.1 | 7.0 | 0.00 | 0.00 | 0.00 | 78 | 1011.6 |
| 20260831121121 | 76 | 208 | 6.1 | 11.3 | 0.00 | 0.00 | 0.00 | 78 | 1011.2 |
| 20260831120620 | 76 | 253 | 5.2 | 7.8 | 0.00 | 0.00 | 0.00 | 78 | 1011.4 |
| 20260831120115 | 76 | 221 | 6.1 | 7.8 | 0.00 | 0.00 | 0.00 | 78 | 1011.4 |
| 20260831115612 | 75 | 215 | 5.2 | 7.8 | 0.00 | 0.00 | 0.00 | 78 | 1011.2 |
| 20260831115107 | 75 | 166 | 4.3 | 7.0 | 0.00 | 0.00 | 0.00 | 79 | 1011.2 |
| 20260831114606 | 75 | 212 | 5.2 | 7.8 | 0.00 | 0.00 | 0.00 | 78 | 1011.2 |
| 20260831114101 | 76 | 193 | 4.3 | 6.1 | 0.00 | 0.00 | 0.00 | 78 | 1011.3 |
| 20260831113600 | 75 | 219 | 4.3 | 6.1 | 0.00 | 0.00 | 0.00 | 79 | 1011.3 |
| 20260831113056 | 75 | 222 | 3.5 | 6.1 | 0.00 | 0.00 | 0.00 | 79 | 1011.4 |
| 20260831112554 | 75 | 229 | 3.5 | 4.3 | 0.00 | 0.00 | 0.00 | 79 | 1011.3 |
| 20260831112050 | 75 | 187 | 3.5 | 4.3 | 0.00 | 0.00 | 0.00 | 78 | 1011.1 |
| 20260831111546 | 76 | 235 | 2.6 | 4.3 | 0.00 | 0.00 | 0.00 | 78 | 1011.2 |
| 20260831111041 | 75 | 260 | 0.9 | 5.2 | 0.00 | 0.00 | 0.00 | 78 | 1011.2 |
| 20260831110536 | 75 | 252 | 2.6 | 2.6 | 0.00 | 0.00 | 0.00 | 79 | 1011.1 |
| 20260831110026 | 75 | 250 | 1.7 | 4.3 | 0.00 | 0.00 | 0.00 | 79 | 1011.0 |
| 20260831105525 | 75 | 229 | 2.6 | 2.6 | 0.00 | 0.00 | 0.00 | 80 | 1010.9 |
| 20260831105020 | 75 | 236 | 1.7 | 2.6 | 0.00 | 0.00 | 0.00 | 79 | 1010.9 |
| 20260831104516 | 76 | 232 | 1.7 | 4.3 | 0.00 | 0.00 | 0.00 | 79 | 1010.7 |
| 20260831104013 | 76 | 210 | 2.6 | 4.3 | 0.00 | 0.00 | 0.00 | 78 | 1010.6 |
| 20260831103513 | 76 | 224 | 3.5 | 5.2 | 0.00 | 0.00 | 0.00 | 78 | 1010.7 |
| 20260831103009 | 76 | 196 | 2.6 | 5.2 | 0.00 | 0.00 | 0.00 | 78 | 1010.7 |
| 20260831102503 | 76 | 213 | 2.6 | 4.3 | 0.00 | 0.00 | 0.00 | 79 | 1010.7 |
| 20260831101958 | 76 | 206 | 2.6 | 4.3 | 0.00 | 0.00 | 0.00 | 78 | 1010.6 |
| 20260831101453 | 76 | 223 | 3.5 | 5.2 | 0.00 | 0.00 | 0.00 | 78 | 1010.6 |
| 20260831100949 | 76 | 217 | 3.5 | 4.3 | 0.00 | 0.00 | 0.00 | 78 | 1010.7 |
| 20260831100445 | 76 | 180 | 2.6 | 4.3 | 0.00 | 0.00 | 0.00 | 78 | 1010.6 |
| 20260831095940 | 77 | 196 | 2.6 | 5.2 | 0.00 | 0.00 | 0.00 | 77 | 1010.6 |
| 20260831095439 | 76 | 214 | 3.5 | 5.2 | 0.00 | 0.00 | 0.00 | 77 | 1010.7 |
| 20260831094933 | 76 | 201 | 3.5 | 5.2 | 0.00 | 0.00 | 0.00 | 78 | 1010.7 |
| 20260831094430 | 76 | 221 | 2.6 | 5.2 | 0.00 | 0.00 | 0.00 | 78 | 1010.5 |
| 20260831093925 | 77 | 256 | 1.7 | 4.3 | 0.00 | 0.00 | 0.00 | 77 | 1010.7 |
| 20260831093420 | 77 | 222 | 2.6 | 4.3 | 0.00 | 0.00 | 0.00 | 77 | 1010.6 |
| 20260831092917 | 77 | 246 | 1.7 | 2.6 | 0.00 | 0.00 | 0.00 | 76 | 1010.8 |
| 20260831092412 | 77 | 229 | 1.7 | 2.6 | 0.00 | 0.00 | 0.00 | 76 | 1011.0 |
| 20260831091907 | 78 | 259 | 1.7 | 4.3 | 0.00 | 0.00 | 0.00 | 75 | 1010.8 |
| 20260831091402 | 78 | 229 | 1.7 | 2.6 | 0.00 | 0.00 | 0.00 | 75 | 1010.9 |
| 20260831090852 | 78 | 207 | 2.6 | 4.3 | 0.00 | 0.00 | 0.00 | 75 | 1011.0 |
| 20260831090348 | 78 | 217 | 3.5 | 5.2 | 0.00 | 0.00 | 0.00 | 75 | 1010.7 |
| 20260831085844 | 78 | 195 | 2.6 | 5.2 | 0.00 | 0.00 | 0.00 | 74 | 1010.8 |
| 20260831085338 | 78 | 218 | 4.3 | 7.0 | 0.00 | 0.00 | 0.00 | 74 | 1010.6 |
| 20260831084833 | 79 | 239 | 3.5 | 6.1 | 0.00 | 0.00 | 0.00 | 74 | 1010.9 |
| 20260831084330 | 79 | 224 | 5.2 | 6.1 | 0.00 | 0.00 | 0.00 | 74 | 1010.7 |
| 20260831083826 | 79 | 213 | 4.3 | 8.7 | 0.00 | 0.00 | 0.00 | 73 | 1010.8 |
| 20260831083321 | 79 | 226 | 5.2 | 7.0 | 0.00 | 0.00 | 0.00 | 74 | 1010.7 |
| 20260831082819 | 79 | 221 | 6.1 | 7.8 | 0.00 | 0.00 | 0.00 | 73 | 1010.5 |
| 20260831082314 | 79 | 221 | 4.3 | 8.7 | 0.00 | 0.00 | 0.00 | 74 | 1010.8 |
| 20260831081810 | 79 | 206 | 3.5 | 6.1 | 0.00 | 0.00 | 0.00 | 74 | 1010.7 |
| 20260831081305 | 79 | 188 | 3.5 | 7.0 | 0.00 | 0.00 | 0.00 | 74 | 1010.8 |
| 20260831080800 | 79 | 168 | 6.1 | 7.0 | 0.00 | 0.00 | 0.00 | 74 | 1010.7 |
| 20260831080255 | 79 | 168 | 5.2 | 7.0 | 0.00 | 0.00 | 0.00 | 73 | 1010.7 |
| 20260831075752 | 79 | 216 | 4.3 | 6.1 | 0.00 | 0.00 | 0.00 | 74 | 1010.8 |
| 20260831075247 | 79 | 193 | 3.5 | 7.0 | 0.00 | 0.00 | 0.00 | 74 | 1010.6 |
| 20260831074746 | 79 | 217 | 4.3 | 7.0 | 0.00 | 0.00 | 0.00 | 74 | 1010.7 |
| 20260831074240 | 80 | 196 | 3.5 | 6.1 | 0.00 | 0.00 | 0.00 | 74 | 1010.7 |
| 20260831073736 | 80 | 212 | 6.1 | 7.0 | 0.00 | 0.00 | 0.00 | 73 | 1010.6 |
| 20260831073235 | 79 | 194 | 3.5 | 6.1 | 0.00 | 0.00 | 0.00 | 74 | 1010.7 |
| 20260831072730 | 79 | 139 | 5.2 | 7.0 | 0.00 | 0.00 | 0.00 | 74 | 1010.6 |
| 20260831072226 | 79 | 189 | 2.6 | 6.1 | 0.00 | 0.00 | 0.00 | 74 | 1010.6 |
| 20260831071721 | 79 | 226 | 2.6 | 4.3 | 0.00 | 0.00 | 0.00 | 75 | 1010.8 |
| 20260831071221 | 79 | 204 | 2.6 | 6.1 | 0.00 | 0.00 | 0.00 | 75 | 1010.6 |
| 20260831070715 | 79 | 155 | 2.6 | 5.2 | 0.00 | 0.00 | 0.00 | 75 | 1010.5 |
| 20260831070209 | 80 | 164 | 3.5 | 4.3 | 0.00 | 0.00 | 0.00 | 75 | 1010.9 |
| 20260831065709 | 80 | 233 | 2.6 | 5.2 | 0.00 | 0.00 | 0.00 | 75 | 1010.7 |
| 20260831065207 | 80 | 174 | 3.5 | 5.2 | 0.00 | 0.00 | 0.00 | 75 | 1010.7 |
| 20260831064702 | 79 | 162 | 4.3 | 7.0 | 0.00 | 0.00 | 0.00 | 75 | 1010.7 |
| 20260831064157 | 79 | 192 | 3.5 | 5.2 | 0.00 | 0.00 | 0.00 | 75 | 1010.8 |
| 20260831063653 | 79 | 223 | 2.6 | 4.3 | 0.00 | 0.00 | 0.00 | 77 | 1010.8 |
| 20260831063143 | 79 | 157 | 4.3 | 6.1 | 0.00 | 0.00 | 0.00 | 76 | 1010.9 |
| 20260831062642 | 79 | 179 | 4.3 | 5.2 | 0.00 | 0.00 | 0.00 | 78 | 1011.0 |
| 20260831062136 | 79 | 190 | 3.5 | 5.2 | 0.00 | 0.00 | 0.00 | 78 | 1010.9 |
| 20260831061634 | 79 | 171 | 3.5 | 5.2 | 0.00 | 0.00 | 0.00 | 78 | 1011.2 |
| 20260831061130 | 78 | 177 | 3.5 | 4.3 | 0.00 | 0.00 | 0.00 | 79 | 1010.9 |
| 20260831060626 | 78 | 185 | 2.6 | 4.3 | 0.00 | 0.00 | 0.00 | 79 | 1011.1 |
| 20260831060120 | 79 | 192 | 3.5 | 4.3 | 0.00 | 0.00 | 0.00 | 79 | 1011.1 |
| 20260831055614 | 79 | 181 | 2.6 | 4.3 | 0.00 | 0.00 | 0.00 | 80 | 1010.9 |
| 20260831055110 | 79 | 180 | 2.6 | 5.2 | 0.00 | 0.00 | 0.00 | 80 | 1011.0 |
| 20260831054609 | 79 | 168 | 3.5 | 4.3 | 0.00 | 0.00 | 0.00 | 80 | 1011.0 |
| 20260831054109 | 79 | 201 | 2.6 | 4.3 | 0.00 | 0.00 | 0.00 | 80 | 1011.1 |
| 20260831053608 | 79 | 162 | 3.5 | 4.3 | 0.00 | 0.00 | 0.00 | 80 | 1010.9 |
| 20260831053102 | 79 | 188 | 3.5 | 7.0 | 0.00 | 0.00 | 0.00 | 79 | 1011.0 |
| 20260831052601 | 79 | 179 | 4.3 | 6.1 | 0.00 | 0.00 | 0.00 | 79 | 1010.9 |
| 20260831052056 | 79 | 166 | 3.5 | 6.1 | 0.00 | 0.00 | 0.00 | 79 | 1010.9 |
| 20260831051554 | 80 | 161 | 3.5 | 8.7 | 0.00 | 0.00 | 0.00 | 79 | 1010.7 |
| 20260831051053 | 80 | 178 | 4.3 | 7.0 | 0.00 | 0.00 | 0.00 | 79 | 1010.6 |
| 20260831050553 | 80 | 175 | 3.5 | 6.1 | 0.00 | 0.00 | 0.00 | 79 | 1010.7 |
| 20260831050051 | 80 | 189 | 3.5 | 7.0 | 0.00 | 0.00 | 0.00 | 79 | 1010.7 |
| 20260831045551 | 80 | 171 | 4.3 | 7.0 | 0.00 | 0.00 | 0.00 | 79 | 1010.7 |
| 20260831045046 | 80 | 240 | 3.5 | 5.2 | 0.00 | 0.00 | 0.00 | 80 | 1010.5 |
| 20260831044541 | 80 | 159 | 5.2 | 8.7 | 0.00 | 0.00 | 0.00 | 79 | 1010.7 |
| 20260831044036 | 80 | 178 | 2.6 | 5.2 | 0.00 | 0.00 | 0.00 | 80 | 1010.8 |
| 20260831043537 | 80 | 153 | 3.5 | 5.2 | 0.00 | 0.00 | 0.00 | 80 | 1010.7 |
| 20260831043032 | 80 | 184 | 3.5 | 5.2 | 0.00 | 0.00 | 0.00 | 79 | 1010.6 |
| 20260831042527 | 80 | 174 | 3.5 | 6.1 | 0.00 | 0.00 | 0.00 | 80 | 1010.7 |
| 20260831042026 | 80 | 159 | 2.6 | 5.2 | 0.00 | 0.00 | 0.00 | 80 | 1010.8 |
| 20260831041521 | 80 | 223 | 2.6 | 7.0 | 0.00 | 0.00 | 0.00 | 80 | 1010.8 |
| 20260831041015 | 80 | 197 | 3.5 | 5.2 | 0.00 | 0.00 | 0.00 | 80 | 1010.8 |
| 20260831040510 | 80 | 156 | 3.5 | 5.2 | 0.00 | 0.00 | 0.00 | 81 | 1010.8 |
| 20260831040009 | 80 | 204 | 3.5 | 5.2 | 0.00 | 0.00 | 0.00 | 81 | 1010.9 |
| 20260831035502 | 80 | 173 | 2.6 | 6.1 | 0.00 | 0.00 | 0.00 | 81 | 1010.8 |
| 20260831034957 | 80 | 184 | 3.5 | 7.0 | 0.00 | 0.00 | 0.00 | 81 | 1010.7 |
| 20260831034451 | 80 | 174 | 3.5 | 6.1 | 0.00 | 0.00 | 0.00 | 81 | 1010.9 |
| 20260831033947 | 80 | 186 | 5.2 | 7.8 | 0.00 | 0.00 | 0.00 | 82 | 1011.0 |
| 20260831033442 | 80 | 191 | 2.6 | 4.3 | 0.00 | 0.00 | 0.00 | 83 | 1010.8 |
| 20260831032937 | 80 | 176 | 2.6 | 4.3 | 0.00 | 0.00 | 0.00 | 83 | 1010.8 |
| 20260831032432 | 80 | 184 | 3.5 | 6.1 | 0.00 | 0.00 | 0.00 | 82 | 1011.0 |
| 20260831031927 | 80 | 172 | 4.3 | 5.2 | 0.00 | 0.00 | 0.00 | 82 | 1011.0 |
| 20260831031427 | 80 | 146 | 2.6 | 4.3 | 0.00 | 0.00 | 0.00 | 83 | 1011.0 |
| 20260831030921 | 79 | 225 | 2.6 | 4.3 | 0.00 | 0.00 | 0.00 | 84 | 1010.7 |
| 20260831030420 | 79 | 205 | 2.6 | 5.2 | 0.00 | 0.00 | 0.00 | 84 | 1011.0 |
| 20260831025919 | 80 | 179 | 2.6 | 2.6 | 0.00 | 0.00 | 0.00 | 84 | 1010.9 |
| 20260831025418 | 80 | 188 | 1.7 | 2.6 | 0.00 | 0.00 | 0.00 | 84 | 1010.9 |
| 20260831024914 | 80 | 162 | 3.5 | 4.3 | 0.00 | 0.00 | 0.00 | 84 | 1011.1 |
| 20260831024413 | 80 | 178 | 2.6 | 4.3 | 0.00 | 0.00 | 0.00 | 84 | 1010.9 |
| 20260831023913 | 80 | 164 | 3.5 | 4.3 | 0.00 | 0.00 | 0.00 | 84 | 1010.9 |
| 20260831023411 | 80 | 180 | 2.6 | 4.3 | 0.00 | 0.00 | 0.00 | 84 | 1011.0 |
| 20260831022907 | 81 | 168 | 2.6 | 4.3 | 0.00 | 0.00 | 0.00 | 83 | 1011.0 |
| 20260831022405 | 81 | 185 | 2.6 | 4.3 | 0.00 | 0.00 | 0.00 | 82 | 1010.9 |
| 20260831021900 | 81 | 172 | 2.6 | 2.6 | 0.00 | 0.00 | 0.00 | 82 | 1011.0 |
| 20260831021400 | 81 | 167 | 2.6 | 5.2 | 0.00 | 0.00 | 0.00 | 82 | 1011.1 |
| 20260831020856 | 81 | 155 | 3.5 | 4.3 | 0.00 | 0.00 | 0.00 | 82 | 1010.9 |
| 20260831020355 | 81 | 158 | 1.7 | 4.3 | 0.00 | 0.00 | 0.00 | 83 | 1011.0 |
| 20260831015851 | 81 | 186 | 2.6 | 5.2 | 0.00 | 0.00 | 0.00 | 83 | 1011.0 |
| 20260831015346 | 82 | 171 | 2.6 | 2.6 | 0.00 | 0.00 | 0.00 | 82 | 1011.1 |
| 20260831014846 | 82 | 183 | 1.7 | 2.6 | 0.00 | 0.00 | 0.00 | 82 | 1010.9 |
| 20260831014341 | 82 | 167 | 2.6 | 2.6 | 0.00 | 0.00 | 0.00 | 82 | 1010.9 |
| 20260831013837 | 82 | 190 | 1.7 | 4.3 | 0.00 | 0.00 | 0.00 | 82 | 1010.9 |
| 20260831013332 | 82 | 203 | 0.9 | 2.6 | 0.00 | 0.00 | 0.00 | 81 | 1010.8 |
| 20260831012826 | 82 | 188 | 2.6 | 2.6 | 0.00 | 0.00 | 0.00 | 81 | 1010.8 |
| 20260831012322 | 83 | 191 | 2.6 | 2.6 | 0.00 | 0.00 | 0.00 | 81 | 1010.7 |
| 20260831011821 | 83 | 186 | 2.6 | 2.6 | 0.00 | 0.00 | 0.00 | 81 | 1010.7 |
| 20260831011316 | 83 | 189 | 2.6 | 4.3 | 0.00 | 0.00 | 0.00 | 81 | 1010.8 |
| 20260831010812 | 83 | 211 | 1.7 | 2.6 | 0.00 | 0.00 | 0.00 | 81 | 1010.6 |
| 20260831010307 | 83 | 206 | 1.7 | 2.6 | 0.00 | 0.00 | 0.00 | 81 | 1010.6 |
| 20260831005803 | 83 | 225 | 1.7 | 1.7 | 0.00 | 0.00 | 0.00 | 81 | 1010.6 |
| 20260831005258 | 84 | 219 | 1.7 | 1.7 | 0.00 | 0.00 | 0.00 | 81 | 1010.6 |